North Windham, CT

12:22 AM EDT on September 30, 2016 (GMT -0400)
Windham

Weather History for KIJD - September, 2013

Change the Weather History Date:

Wednesday, September 18, 2013

  Actual Average Record
Temperature  
Mean Temperature 54 °F -  
Max Temperature 71 °F 73 °F 87 °F (1991)
Min Temperature 37 °F 49 °F 31 °F (1959)
Degree Days  
Heating Degree Days 11    
Growing Degree Days 4 (Base 50)    
Moisture  
Dew Point 40 °F    
Average Humidity 85    
Maximum Humidity 100    
Minimum Humidity 31    
Precipitation  
Precipitation 0.00 in - - ()
Sea Level Pressure  
Sea Level Pressure 30.32 in    
Wind  
Wind Speed 1 mph (West)    
Max Wind Speed 7 mph    
Max Gust Speed -    
Visibility 5 miles    
Events Fog    
Averages and records for this station are not official NWS values.
T = Trace of Precipitation, MM = Missing Value Source: NWS Daily Summary

Daily Weather History Graph

Daily Weather History Graph

Search for Another Location

Airport or City:

Trip Planner

Search our weather history database for the weather conditions in past years. The results will help you decide how hot, cold, wet, or windy it might be!

Date:

Astronomy

Sep. 18, 2013 Rise Set
Actual Time 6:32 AM EDT 6:52 PM EDT
Civil Twilight 6:04 AM EDT 7:20 PM EDT
Nautical Twilight 5:31 AM EDT 7:52 PM EDT
Astronomical Twilight 4:58 AM EDT 8:26 PM EDT
Moon 6:13 PM EDT (9/18) 5:31 AM EDT (9/18)
Length of Visible Light 13h 15m
Length of Day
12h 20m
Waxing Gibbous, 99% of the Moon is Illuminated
Sep 18
Waxing Gibbous
Sep 19
Full
Sep 26
Last Quarter
Oct 4
New
Oct 11
First Quarter

Hourly Weather History & Observations

Time (EDT) Temp. Windchill Dew Point Humidity Pressure Visibility Wind Dir Wind Speed Gust Speed Precip Events Conditions
12:16 AM 42.8 °F - 42.8 °F 100% 30.36 in 1.5 mi Calm Calm - N/A   Overcast
12:21 AM 44.6 °F - 42.8 °F 93% 30.36 in 0.2 mi Calm Calm - N/A Fog Fog
12:32 AM 42.8 °F - 42.8 °F 100% 30.36 in 1.2 mi Calm Calm - N/A   Mostly Cloudy
12:34 AM 42.8 °F - 41.0 °F 93% 30.36 in 4.0 mi Calm Calm - N/A   Mostly Cloudy
12:52 AM 43.0 °F - 41.0 °F 93% 30.36 in 5.0 mi Calm Calm - N/A   Overcast
1:09 AM 42.8 °F - 42.8 °F 100% 30.36 in 1.8 mi Calm Calm - N/A   Overcast
1:29 AM 42.8 °F - 41.0 °F 93% 30.36 in 0.8 mi Calm Calm - N/A   Mist
1:52 AM 42.1 °F - 41.0 °F 96% 30.35 in 1.0 mi Calm Calm - N/A   Overcast
2:02 AM 41.0 °F - 39.2 °F 93% 30.35 in 3.0 mi Calm Calm - N/A   Overcast
2:09 AM 42.8 °F - 39.2 °F 87% 30.35 in 1.2 mi Calm Calm - N/A   Overcast
2:18 AM 41.0 °F - 39.2 °F 93% 30.35 in 0.8 mi Calm Calm - N/A   Mist
2:23 AM 41.0 °F - 39.2 °F 93% 30.35 in 2.5 mi Calm Calm - N/A   Overcast
2:33 AM 41.0 °F - 39.2 °F 93% 30.35 in 1.5 mi Calm Calm - N/A   Overcast
2:36 AM 41.0 °F - 39.2 °F 93% 30.35 in 3.0 mi Calm Calm - N/A   Overcast
2:52 AM 39.9 °F 37.8 °F 39.0 °F 97% 30.35 in 10.0 mi North 3.5 mph - N/A   Mostly Cloudy
3:37 AM 39.2 °F - 39.2 °F 100% 30.34 in 1.5 mi Calm Calm - N/A   Overcast
3:50 AM 39.2 °F - 39.2 °F 100% 30.34 in 0.2 mi Calm Calm - N/A Fog Fog
3:52 AM 39.9 °F - 39.0 °F 97% 30.34 in 0.2 mi Calm Calm - N/A Fog Fog
4:14 AM 39.2 °F - 39.2 °F 100% 30.34 in 0.5 mi Calm Calm - N/A Fog Fog
4:23 AM 39.2 °F - 37.4 °F 93% 30.34 in 2.0 mi Calm Calm - N/A   Mostly Cloudy
4:36 AM 39.2 °F - 37.4 °F 93% 30.33 in 10.0 mi Calm Calm - N/A   Overcast
4:52 AM 39.0 °F - 37.9 °F 96% 30.34 in 10.0 mi Calm Calm - N/A   Overcast
5:43 AM 39.2 °F - 37.4 °F 93% 30.33 in 1.5 mi Calm Calm - N/A   Overcast
5:49 AM 39.2 °F - 37.4 °F 93% 30.34 in 0.2 mi Calm Calm - N/A Fog Fog
5:52 AM 39.0 °F - 37.9 °F 96% 30.34 in 0.2 mi Calm Calm - N/A Fog Fog
6:01 AM 37.4 °F - 37.4 °F 100% 30.34 in 1.2 mi Calm Calm - N/A   Mostly Cloudy
6:03 AM 37.4 °F - 35.6 °F 93% 30.34 in 4.0 mi Calm Calm - N/A   Mostly Cloudy
6:15 AM 37.4 °F 34.9 °F 35.6 °F 93% 30.34 in 2.0 mi North 3.5 mph - N/A   Scattered Clouds
6:17 AM 37.4 °F - 35.6 °F 93% 30.34 in 1.5 mi Calm Calm - N/A   Mostly Cloudy
6:26 AM 37.4 °F - 35.6 °F 93% 30.34 in 4.0 mi Calm Calm - N/A   Mostly Cloudy
6:45 AM 37.4 °F - 35.6 °F 93% 30.34 in 10.0 mi Calm Calm - N/A   Scattered Clouds
6:52 AM 37.0 °F - 36.0 °F 96% 30.35 in 10.0 mi Calm Calm - N/A   Scattered Clouds
6:56 AM 37.4 °F - 35.6 °F 93% 30.35 in 2.5 mi Calm Calm - N/A   Mostly Cloudy
7:03 AM 37.4 °F - 35.6 °F 93% 30.35 in 1.5 mi Calm Calm - N/A   Mostly Cloudy
7:07 AM 37.4 °F - 35.6 °F 93% 30.35 in 4.0 mi Calm Calm - N/A   Scattered Clouds
7:18 AM 37.4 °F 34.9 °F 35.6 °F 93% 30.35 in 10.0 mi North 3.5 mph - N/A   Mostly Cloudy
7:28 AM 37.4 °F - 35.6 °F 93% 30.35 in 10.0 mi Calm Calm - N/A   Partly Cloudy
7:44 AM 39.2 °F - 37.4 °F 93% 30.35 in 1.8 mi Calm Calm - N/A   Scattered Clouds
7:48 AM 39.2 °F - 37.4 °F 93% 30.35 in 0.8 mi Calm Calm - N/A   Mist
7:52 AM 39.0 °F - 37.9 °F 96% 30.35 in 0.8 mi Calm Calm - N/A   Mist
8:00 AM 39.2 °F - 37.4 °F 93% 30.35 in 2.0 mi Calm Calm - N/A   Mostly Cloudy
8:08 AM 39.2 °F - 39.2 °F 100% 30.35 in 10.0 mi Calm Calm - N/A   Scattered Clouds
8:52 AM 46.0 °F - 42.1 °F 86% 30.34 in 10.0 mi Calm Calm - N/A   Clear
9:52 AM 55.0 °F - 46.0 °F 72% 30.32 in 10.0 mi Calm Calm - N/A   Clear
10:52 AM 63.0 °F - 45.0 °F 52% 30.31 in 10.0 mi SW 5.8 mph - N/A   Clear
11:52 AM 64.9 °F - 41.0 °F 42% 30.30 in 10.0 mi Calm Calm - N/A   Clear
12:52 PM 66.9 °F - 42.1 °F 40% 30.27 in 10.0 mi Calm Calm - N/A   Clear
1:52 PM 70.0 °F - 41.0 °F 35% 30.25 in 10.0 mi Variable 3.5 mph - N/A   Clear
2:52 PM 70.0 °F - 37.9 °F 31% 30.22 in 10.0 mi West 5.8 mph - N/A   Clear
3:52 PM 71.1 °F - 39.9 °F 32% 30.21 in 10.0 mi WNW 4.6 mph - N/A   Clear
4:52 PM 70.0 °F - 42.1 °F 36% 30.20 in 10.0 mi SW 6.9 mph - N/A   Clear
5:52 PM 69.1 °F - 44.1 °F 40% 30.19 in 10.0 mi SSW 5.8 mph - N/A   Clear
6:52 PM 64.0 °F - 51.1 °F 63% 30.19 in 10.0 mi South 5.8 mph - N/A   Clear
7:52 PM 59.0 °F - 51.1 °F 75% 30.19 in 10.0 mi Calm Calm - N/A   Clear
8:52 PM 55.0 °F - 50.0 °F 83% 30.19 in 10.0 mi Calm Calm - N/A   Clear
9:52 PM 51.1 °F - 48.9 °F 92% 30.20 in 10.0 mi Calm Calm - N/A   Clear
10:52 PM 48.9 °F - 46.9 °F 93% 30.20 in 10.0 mi Calm Calm - N/A   Clear
11:52 PM 48.0 °F - 46.0 °F 93% 30.19 in 10.0 mi Calm Calm - N/A   Scattered Clouds